Time,TemperatureF,DewpointF,PressureIn,WindDirection,WindDirectionDegrees,WindSpeedMPH,WindSpeedGustMPH,Humidity,HourlyPrecipIn,Conditions,Clouds,dailyrainin,SolarRadiationWatts/m^2,SoftwareType,DateUTC
2013-09-24 00:14:00,68.0,37.0,30.02,ENE,78,1.0,4.0,32,0.00,,,0.00,0,weatherlink.com 1.10,2013-09-24 07:14:00,
2013-09-24 00:29:00,65.9,38.0,30.03,ENE,78,0.0,0.0,36,0.00,,,0.00,0,weatherlink.com 1.10,2013-09-24 07:29:00,
2013-09-24 00:44:00,64.7,41.0,30.03,ENE,78,0.0,0.0,42,0.00,,,0.00,0,weatherlink.com 1.10,2013-09-24 07:44:00,
2013-09-24 00:59:00,63.7,40.0,30.03,East,84,1.0,3.0,42,0.00,,,0.00,0,weatherlink.com 1.10,2013-09-24 07:59:00,
2013-09-24 01:14:00,64.3,39.0,30.03,East,84,2.0,3.0,40,0.00,,,0.00,0,weatherlink.com 1.10,2013-09-24 08:14:00,
2013-09-24 01:29:00,64.1,38.0,30.04,East,84,1.0,3.0,38,0.00,,,0.00,0,weatherlink.com 1.10,2013-09-24 08:29:00,
2013-09-24 01:44:00,63.6,37.0,30.04,East,84,2.0,2.0,38,0.00,,,0.00,0,weatherlink.com 1.10,2013-09-24 08:44:00,
2013-09-24 01:59:00,64.2,37.0,30.04,ENE,72,0.0,4.0,37,0.00,,,0.00,0,weatherlink.com 1.10,2013-09-24 08:59:00,
2013-09-24 02:14:00,63.3,38.0,30.04,ENE,72,0.0,2.0,39,0.00,,,0.00,0,weatherlink.com 1.10,2013-09-24 09:14:00,
2013-09-24 02:29:00,61.5,40.0,30.03,ENE,72,0.0,0.0,45,0.00,,,0.00,0,weatherlink.com 1.10,2013-09-24 09:29:00,
2013-09-24 02:44:00,59.9,40.0,30.03,ENE,72,0.0,0.0,48,0.00,,,0.00,0,weatherlink.com 1.10,2013-09-24 09:44:00,
2013-09-24 03:00:00,59.6,39.0,30.04,ENE,72,0.0,1.0,47,0.00,,,0.00,0,weatherlink.com 1.10,2013-09-24 10:00:00,
2013-09-24 03:15:00,59.8,40.0,30.03,ENE,72,0.0,0.0,48,0.00,,,0.00,0,weatherlink.com 1.10,2013-09-24 10:15:00,
2013-09-24 03:30:00,59.8,40.0,30.04,ENE,72,0.0,0.0,49,0.00,,,0.00,0,weatherlink.com 1.10,2013-09-24 10:30:00,
2013-09-24 03:45:00,59.3,40.0,30.04,ENE,72,0.0,0.0,50,0.00,,,0.00,0,weatherlink.com 1.10,2013-09-24 10:45:00,
2013-09-24 04:00:00,59.0,40.0,30.04,ENE,72,0.0,0.0,50,0.00,,,0.00,0,weatherlink.com 1.10,2013-09-24 11:00:00,
2013-09-24 04:15:00,59.0,41.0,30.05,ENE,72,0.0,1.0,51,0.00,,,0.00,0,weatherlink.com 1.10,2013-09-24 11:15:00,
2013-09-24 04:30:00,58.5,40.0,30.04,ENE,72,0.0,1.0,51,0.00,,,0.00,0,weatherlink.com 1.10,2013-09-24 11:30:00,
2013-09-24 04:45:00,58.3,40.0,30.05,ENE,72,0.0,1.0,51,0.00,,,0.00,0,weatherlink.com 1.10,2013-09-24 11:45:00,
2013-09-24 05:00:00,58.1,40.0,30.05,ENE,72,1.0,1.0,52,0.00,,,0.00,0,weatherlink.com 1.10,2013-09-24 12:00:00,
2013-09-24 05:15:00,58.0,40.0,30.05,SSE,165,0.0,3.0,52,0.00,,,0.00,0,weatherlink.com 1.10,2013-09-24 12:15:00,
2013-09-24 05:30:00,55.6,40.0,30.05,SSE,164,1.0,3.0,56,0.00,,,0.00,0,weatherlink.com 1.10,2013-09-24 12:30:00,
2013-09-24 05:45:00,57.2,39.0,30.05,East,99,2.0,2.0,52,0.00,,,0.00,0,weatherlink.com 1.10,2013-09-24 12:45:00,
2013-09-24 06:00:00,57.7,39.0,30.06,East,80,0.0,2.0,51,0.00,,,0.00,0,weatherlink.com 1.10,2013-09-24 13:00:00,
2013-09-24 06:15:00,58.5,40.0,30.07,NNW,340,2.0,4.0,51,0.00,,,0.00,7,weatherlink.com 1.10,2013-09-24 13:15:00,
2013-09-24 06:30:00,58.3,40.0,30.07,NNW,340,0.0,2.0,51,0.00,,,0.00,16,weatherlink.com 1.10,2013-09-24 13:30:00,
2013-09-24 06:45:00,58.9,41.0,30.08,SE,145,2.0,2.0,51,0.00,,,0.00,40,weatherlink.com 1.10,2013-09-24 13:45:00,
2013-09-24 07:00:00,60.8,42.0,30.08,SE,131,0.0,1.0,50,0.00,,,0.00,84,weatherlink.com 1.10,2013-09-24 14:00:00,
2013-09-24 07:15:00,62.6,44.0,30.08,SE,131,0.0,2.0,51,0.00,,,0.00,146,weatherlink.com 1.10,2013-09-24 14:15:00,
2013-09-24 07:30:00,63.5,43.0,30.08,SE,132,0.0,2.0,47,0.00,,,0.00,200,weatherlink.com 1.10,2013-09-24 14:30:00,
2013-09-24 07:45:00,66.6,42.0,30.08,SE,131,0.0,1.0,41,0.00,,,0.00,255,weatherlink.com 1.10,2013-09-24 14:45:00,
2013-09-24 08:00:00,70.9,41.0,30.08,SE,131,0.0,1.0,34,0.00,,,0.00,309,weatherlink.com 1.10,2013-09-24 15:00:00,
2013-09-24 08:15:00,73.6,42.0,30.08,SW,225,0.0,3.0,32,0.00,,,0.00,360,weatherlink.com 1.10,2013-09-24 15:15:00,
2013-09-24 08:30:00,75.5,42.0,30.08,West,277,0.0,2.0,30,0.00,,,0.00,411,weatherlink.com 1.10,2013-09-24 15:30:00,
2013-09-24 08:45:00,77.4,43.0,30.08,WNW,298,1.0,3.0,29,0.00,,,0.00,466,weatherlink.com 1.10,2013-09-24 15:45:00,
2013-09-24 09:01:00,79.6,44.0,30.09,WNW,284,1.0,3.0,28,0.00,,,0.00,512,weatherlink.com 1.10,2013-09-24 16:01:00,
2013-09-24 09:16:00,81.1,42.0,30.08,WSW,238,0.0,2.0,25,0.00,,,0.00,555,weatherlink.com 1.10,2013-09-24 16:16:00,
2013-09-24 09:31:00,82.7,40.0,30.08,WSW,240,1.0,3.0,22,0.00,,,0.00,605,weatherlink.com 1.10,2013-09-24 16:31:00,
2013-09-24 09:46:00,84.8,42.0,30.07,WSW,240,3.0,3.0,22,0.00,,,0.00,642,weatherlink.com 1.10,2013-09-24 16:46:00,
2013-09-24 10:01:00,87.2,39.0,30.07,WSW,249,2.0,4.0,18,0.00,,,0.00,680,weatherlink.com 1.10,2013-09-24 17:01:00,
2013-09-24 10:16:00,88.5,38.0,30.06,SW,229,0.0,4.0,17,0.00,,,0.00,712,weatherlink.com 1.10,2013-09-24 17:16:00,
2013-09-24 10:31:00,90.6,39.0,30.06,West,277,3.0,4.0,16,0.00,,,0.00,747,weatherlink.com 1.10,2013-09-24 17:31:00,
2013-09-24 10:46:00,90.3,37.0,30.05,NNW,328,2.0,5.0,15,0.00,,,0.00,773,weatherlink.com 1.10,2013-09-24 17:46:00,
2013-09-24 11:01:00,89.8,36.0,30.05,WSW,246,1.0,3.0,15,0.00,,,0.00,796,weatherlink.com 1.10,2013-09-24 18:01:00,
2013-09-24 11:16:00,92.2,35.0,30.04,WNW,282,2.0,7.0,13,0.00,,,0.00,817,weatherlink.com 1.10,2013-09-24 18:16:00,
2013-09-24 11:31:00,91.5,36.0,30.03,NNE,20,0.0,5.0,14,0.00,,,0.00,833,weatherlink.com 1.10,2013-09-24 18:31:00,
2013-09-24 11:46:00,91.9,36.0,30.03,North,11,2.0,10.0,14,0.00,,,0.00,844,weatherlink.com 1.10,2013-09-24 18:46:00,
2013-09-24 12:01:00,95.4,37.0,30.02,SW,220,2.0,6.0,13,0.00,,,0.00,856,weatherlink.com 1.10,2013-09-24 19:01:00,
2013-09-24 12:16:00,93.2,35.0,30.02,SE,144,4.0,5.0,13,0.00,,,0.00,853,weatherlink.com 1.10,2013-09-24 19:16:00,
2013-09-24 12:46:00,95.2,35.0,30.00,West,261,6.0,11.0,12,0.00,,,0.00,849,weatherlink.com 1.10,2013-09-24 19:46:00,
2013-09-24 13:01:00,95.2,35.0,29.99,SW,217,4.0,9.0,12,0.00,,,0.00,844,weatherlink.com 1.10,2013-09-24 20:01:00,
2013-09-24 13:16:00,94.7,32.0,29.98,WSW,250,7.0,9.0,11,0.00,,,0.00,830,weatherlink.com 1.10,2013-09-24 20:16:00,
2013-09-24 13:31:00,94.5,32.0,29.97,NNW,332,2.0,9.0,11,0.00,,,0.00,807,weatherlink.com 1.10,2013-09-24 20:31:00,
2013-09-24 13:46:00,95.2,33.0,29.96,WSW,249,4.0,12.0,11,0.00,,,0.00,786,weatherlink.com 1.10,2013-09-24 20:46:00,
2013-09-24 14:01:00,94.1,32.0,29.96,NW,322,1.0,9.0,11,0.00,,,0.00,754,weatherlink.com 1.10,2013-09-24 21:01:00,
2013-09-24 14:17:00,95.0,33.0,29.95,WSW,242,2.0,8.0,11,0.00,,,0.00,728,weatherlink.com 1.10,2013-09-24 21:17:00,
2013-09-24 14:32:00,94.6,32.0,29.95,SSW,200,3.0,8.0,11,0.00,,,0.00,693,weatherlink.com 1.10,2013-09-24 21:32:00,
2013-09-24 14:47:00,94.9,33.0,29.94,WNW,300,3.0,10.0,11,0.00,,,0.00,659,weatherlink.com 1.10,2013-09-24 21:47:00,
2013-09-24 15:02:00,95.3,35.0,29.93,WSW,256,3.0,10.0,12,0.00,,,0.00,619,weatherlink.com 1.10,2013-09-24 22:02:00,
2013-09-24 15:17:00,94.2,34.0,29.93,South,185,2.0,8.0,12,0.00,,,0.00,573,weatherlink.com 1.10,2013-09-24 22:17:00,
2013-09-24 15:32:00,94.1,34.0,29.92,WNW,282,0.0,12.0,12,0.00,,,0.00,529,weatherlink.com 1.10,2013-09-24 22:32:00,
2013-09-24 15:47:00,94.2,34.0,29.92,WNW,296,4.0,6.0,12,0.00,,,0.00,482,weatherlink.com 1.10,2013-09-24 22:47:00,
2013-09-24 16:02:00,93.7,34.0,29.91,SE,132,0.0,7.0,12,0.00,,,0.00,432,weatherlink.com 1.10,2013-09-24 23:02:00,
2013-09-24 16:17:00,94.9,35.0,29.91,SSW,207,1.0,10.0,12,0.00,,,0.00,380,weatherlink.com 1.10,2013-09-24 23:17:00,
2013-09-24 16:32:00,94.1,36.0,29.91,WNW,294,3.0,10.0,13,0.00,,,0.00,323,weatherlink.com 1.10,2013-09-24 23:32:00,
2013-09-24 16:47:00,94.1,36.0,29.90,WNW,292,2.0,7.0,13,0.00,,,0.00,272,weatherlink.com 1.10,2013-09-24 23:47:00,
2013-09-24 17:02:00,93.8,36.0,29.90,SW,236,6.0,6.0,13,0.00,,,0.00,213,weatherlink.com 1.10,2013-09-25 00:02:00,
2013-09-24 17:17:00,93.5,38.0,29.90,West,269,3.0,7.0,14,0.00,,,0.00,151,weatherlink.com 1.10,2013-09-25 00:17:00,
2013-09-24 17:32:00,92.8,39.0,29.90,West,267,3.0,10.0,15,0.00,,,0.00,91,weatherlink.com 1.10,2013-09-25 00:32:00,
2013-09-24 17:47:00,92.0,40.0,29.89,West,266,4.0,9.0,16,0.00,,,0.00,44,weatherlink.com 1.10,2013-09-25 00:47:00,
2013-09-24 18:02:00,90.9,39.0,29.89,West,271,7.0,10.0,16,0.00,,,0.00,14,weatherlink.com 1.10,2013-09-25 01:02:00,
2013-09-24 18:17:00,89.6,39.0,29.89,West,277,3.0,9.0,17,0.00,,,0.00,5,weatherlink.com 1.10,2013-09-25 01:17:00,
2013-09-24 18:32:00,88.0,39.0,29.89,WNW,286,3.0,7.0,18,0.00,,,0.00,0,weatherlink.com 1.10,2013-09-25 01:32:00,
2013-09-24 18:47:00,86.4,40.0,29.90,West,259,1.0,3.0,19,0.00,,,0.00,0,weatherlink.com 1.10,2013-09-25 01:47:00,
2013-09-24 19:02:00,85.0,40.0,29.90,West,261,3.0,4.0,20,0.00,,,0.00,0,weatherlink.com 1.10,2013-09-25 02:02:00,
2013-09-24 19:17:00,83.9,40.0,29.90,WSW,256,2.0,4.0,21,0.00,,,0.00,0,weatherlink.com 1.10,2013-09-25 02:17:00,
2013-09-24 19:32:00,83.4,40.0,29.91,WSW,252,1.0,4.0,21,0.00,,,0.00,0,weatherlink.com 1.10,2013-09-25 02:32:00,
2013-09-24 19:47:00,82.5,40.0,29.92,WSW,245,2.0,4.0,22,0.00,,,0.00,0,weatherlink.com 1.10,2013-09-25 02:47:00,
2013-09-24 20:02:00,82.6,40.0,29.93,SW,233,5.0,7.0,22,0.00,,,0.00,0,weatherlink.com 1.10,2013-09-25 03:02:00,
2013-09-24 20:17:00,83.3,36.0,29.93,WSW,241,8.0,8.0,18,0.00,,,0.00,0,weatherlink.com 1.10,2013-09-25 03:17:00,
2013-09-24 20:32:00,83.6,30.0,29.94,SSW,212,9.0,10.0,14,0.00,,,0.00,0,weatherlink.com 1.10,2013-09-25 03:32:00,
2013-09-24 20:47:00,83.6,28.0,29.94,WSW,238,6.0,9.0,13,0.00,,,0.00,0,weatherlink.com 1.10,2013-09-25 03:47:00,
2013-09-24 21:02:00,82.9,27.0,29.95,WSW,242,5.0,10.0,13,0.00,,,0.00,0,weatherlink.com 1.10,2013-09-25 04:02:00,
2013-09-24 21:17:00,81.5,28.0,29.95,SW,223,1.0,4.0,14,0.00,,,0.00,0,weatherlink.com 1.10,2013-09-25 04:17:00,
2013-09-24 21:32:00,79.8,30.0,29.96,SSE,147,1.0,3.0,16,0.00,,,0.00,0,weatherlink.com 1.10,2013-09-25 04:32:00,
2013-09-24 21:47:00,78.0,31.0,29.96,ENE,73,1.0,3.0,18,0.00,,,0.00,0,weatherlink.com 1.10,2013-09-25 04:47:00,
2013-09-24 22:02:00,77.2,32.0,29.96,SSE,156,0.0,3.0,19,0.00,,,0.00,0,weatherlink.com 1.10,2013-09-25 05:02:00,
2013-09-24 22:17:00,76.8,31.0,29.96,SSW,205,0.0,2.0,19,0.00,,,0.00,0,weatherlink.com 1.10,2013-09-25 05:17:00,
2013-09-24 22:32:00,76.3,31.0,29.96,SSE,167,0.0,2.0,19,0.00,,,0.00,0,weatherlink.com 1.10,2013-09-25 05:32:00,
2013-09-24 22:47:00,76.3,30.0,29.96,SSE,148,1.0,5.0,18,0.00,,,0.00,0,weatherlink.com 1.10,2013-09-25 05:47:00,
2013-09-24 23:02:00,75.1,31.0,29.96,NNE,31,2.0,4.0,20,0.00,,,0.00,0,weatherlink.com 1.10,2013-09-25 06:02:00,
2013-09-24 23:17:00,73.9,33.0,29.96,NNE,32,0.0,2.0,22,0.00,,,0.00,0,weatherlink.com 1.10,2013-09-25 06:17:00,
2013-09-24 23:32:00,73.0,32.0,29.95,NNE,32,0.0,2.0,22,0.00,,,0.00,0,weatherlink.com 1.10,2013-09-25 06:32:00,
2013-09-24 23:47:00,72.3,32.0,29.95,NNE,32,0.0,2.0,23,0.00,,,0.00,0,weatherlink.com 1.10,2013-09-25 06:47:00,